GW2402 Weather Reports


Display with metric or nautical units.
time (UTC)temp
F
wind
direction
speed
MPH
gust
MPH
rain 1hr
in
rain 24hr
in
rain mn
in
humidity
%
barometer
mb
20260509141546 73 0 0.0 1.0 0.00 0.00 0.00 96 1010.3
20260509140103 73 0 0.0 1.0 0.00 0.00 0.00 96 1010.8
20260509134541 73 0 0.0 0.0 0.00 0.00 0.00 95 1010.8
20260509133048 73 0 0.0 0.0 0.00 0.00 0.00 96 1010.9
20260509131547 73 0 0.0 1.0 0.00 0.00 0.00 96 1011.0
20260509130051 73 0 0.0 1.0 0.00 0.00 0.00 96 1010.4
20260509124551 73 0 0.0 0.0 0.00 0.00 0.00 95 1010.0
20260509123045 73 0 0.0 0.0 0.00 0.00 0.00 96 1010.3
20260509121548 73 0 0.0 0.0 0.00 0.00 0.00 95 1010.3
20260509120053 73 0 0.0 0.0 0.00 0.00 0.00 95 1010.5
20260509114546 73 0 0.0 0.0 0.00 0.00 0.00 95 1010.5
20260509113046 73 0 0.0 0.0 0.00 0.00 0.00 95 1011.0
20260509111541 73 0 0.0 0.0 0.00 0.00 0.00 95 1011.0
20260509110039 73 89 0.0 1.0 0.00 0.00 0.00 95 1011.0
20260509104553 73 0 0.0 0.0 0.00 0.00 0.00 95 1011.4
20260509103052 73 0 0.0 0.0 0.00 0.00 0.00 95 1011.3
20260509101546 73 0 0.0 0.0 0.00 0.00 0.00 95 1011.0
20260509100043 73 0 0.0 0.0 0.00 0.00 0.00 95 1010.2
20260509094555 73 0 0.0 0.0 0.00 0.00 0.00 95 1010.1
20260509093047 73 0 0.0 0.0 0.00 0.00 0.00 95 1010.1
20260509091553 73 0 0.0 0.0 0.00 0.00 0.00 94 1009.9
20260509090054 73 0 0.0 0.0 0.00 0.00 0.00 94 1009.8
20260509084547 73 0 0.0 0.0 0.00 0.00 0.00 94 1010.1
20260509083041 73 0 0.0 0.0 0.00 0.00 0.00 93 1010.1
20260509081547 73 0 0.0 0.0 0.00 0.00 0.00 93 1010.7
20260509080051 73 0 0.0 0.0 0.00 0.00 0.00 93 1010.3
20260509074605 73 0 0.0 0.0 0.00 0.00 0.00 92 1010.2
20260509073058 73 0 0.0 0.0 0.00 0.00 0.00 92 1010.4
20260509071545 73 0 0.0 0.0 0.00 0.00 0.00 92 1010.6
20260509070044 73 0 0.0 0.0 0.00 0.00 0.00 92 1010.5
20260509064543 73 0 0.0 0.0 0.00 0.00 0.00 92 1010.2
20260509063058 73 0 0.0 1.0 0.00 0.00 0.00 92 1010.4
20260509061541 73 0 0.0 1.0 0.00 0.00 0.00 91 1010.2
20260509060059 73 0 0.0 2.0 0.00 0.00 0.00 91 1009.9
20260509054548 73 0 0.0 6.0 0.00 0.00 0.00 90 1010.2
20260509053057 73 0 0.0 1.0 0.00 0.00 0.00 90 1010.0
20260509051547 74 0 0.0 0.0 0.00 0.00 0.00 90 1009.6
20260509050044 74 0 0.0 0.0 0.00 0.00 0.00 89 1009.8
20260509044547 74 0 0.0 1.0 0.00 0.00 0.00 89 1009.6
20260509043053 74 0 0.0 0.0 0.00 0.00 0.00 88 1009.7
20260509041548 75 0 0.0 0.0 0.00 0.00 0.00 87 1009.7
20260509040059 75 0 0.0 0.0 0.00 0.00 0.00 86 1010.0
20260509034547 75 0 0.0 0.0 0.00 0.00 0.00 86 1010.0
20260509033110 75 0 0.0 1.0 0.00 0.00 0.00 86 1009.7
20260509031550 75 0 0.0 0.0 0.00 0.00 0.00 86 1009.5
20260509030049 75 0 0.0 0.0 0.00 0.00 0.00 86 1009.5
20260509024552 75 0 0.0 1.0 0.00 0.00 0.00 86 1009.4
20260509023047 75 0 0.0 0.0 0.00 0.00 0.00 85 1009.3
20260509021550 76 0 0.0 0.0 0.00 0.00 0.00 84 1009.0
20260509020105 76 0 0.0 0.0 0.00 0.00 0.00 84 1008.9
20260509014549 77 0 0.0 0.0 0.00 0.00 0.00 83 1008.8
20260509013056 77 0 0.0 0.0 0.00 0.00 0.00 82 1008.8
20260509011559 77 0 0.0 0.0 0.00 0.00 0.00 82 1008.8
20260509010050 77 0 0.0 1.0 0.00 0.00 0.00 81 1008.5
20260509004551 78 0 0.0 1.0 0.00 0.00 0.00 81 1008.5
20260509003057 78 0 0.0 1.0 0.00 0.00 0.00 80 1008.3
20260509001543 79 0 0.0 0.0 0.00 0.00 0.00 79 1008.6
20260509000052 79 0 0.0 1.0 0.00 0.00 0.00 78 1008.5
20260508234550 80 0 0.0 1.0 0.00 0.00 0.00 78 1008.4
20260508233053 80 0 0.0 1.0 0.00 0.00 0.00 77 1008.3
20260508231554 80 284 0.0 1.0 0.00 0.00 0.00 76 1008.4
20260508230132 80 0 0.0 0.0 0.00 0.00 0.00 76 1008.4
20260508224553 81 0 0.0 1.0 0.00 0.00 0.00 75 1008.3
20260508223044 81 0 0.0 0.0 0.00 0.00 0.00 76 1008.2
20260508221554 80 0 0.0 1.0 0.00 0.00 0.00 76 1008.4
20260508220053 81 0 0.0 1.0 0.00 0.00 0.00 75 1008.7
20260508214547 81 0 0.0 1.0 0.00 0.00 0.00 75 1008.9
20260508213048 80 0 0.0 0.0 0.00 0.00 0.00 76 1008.8
20260508211543 80 0 0.0 1.0 0.00 0.00 0.00 76 1009.1
20260508210042 80 0 0.0 0.0 0.00 0.00 0.00 76 1009.4
20260508204553 80 0 0.0 0.0 0.00 0.00 0.00 75 1009.6
20260508203048 80 0 0.0 0.0 0.00 0.00 0.00 76 1009.7
20260508201546 80 0 0.0 1.0 0.00 0.00 0.00 75 1009.9
20260508200047 80 0 0.0 1.0 0.00 0.00 0.00 75 1010.2
20260508194603 80 0 0.0 1.0 0.00 0.00 0.00 75 1010.4
20260508193105 79 261 0.0 1.0 0.00 0.00 0.00 74 1010.4
20260508191550 79 0 0.0 1.0 0.00 0.00 0.00 74 1010.8
20260508190103 79 0 0.0 1.0 0.00 0.00 0.00 75 1010.8
20260508184546 78 257 0.0 1.0 0.00 0.00 0.00 76 1010.9
20260508183045 77 0 0.0 1.0 0.00 0.00 0.00 77 1011.2
20260508181553 77 0 0.0 1.0 0.00 0.00 0.00 76 1011.5
20260508180049 76 262 0.0 1.0 0.00 0.00 0.00 76 1011.8
20260508174549 76 0 0.0 0.0 0.00 0.00 0.00 76 1012.0
20260508173047 76 0 0.0 0.0 0.00 0.00 0.00 77 1012.1
20260508171546 76 0 0.0 1.0 0.00 0.00 0.00 75 1012.1
20260508170049 77 271 0.0 1.0 0.00 0.00 0.00 73 1012.1
20260508164547 76 0 0.0 0.0 0.00 0.00 0.00 74 1012.1
20260508163100 74 105 0.0 1.0 0.00 0.00 0.00 75 1012.1
20260508161555 72 0 0.0 1.0 0.00 0.00 0.00 77 1012.7
20260508160047 71 0 0.0 0.0 0.00 0.00 0.00 77 1013.1
20260508154548 70 0 0.0 1.0 0.00 0.00 0.00 78 1013.1
20260508153100 69 0 0.0 1.0 0.00 0.00 0.00 78 1013.0
20260508151548 68 0 0.0 1.0 0.00 0.00 0.00 78 1013.4
20260508150045 67 0 0.0 0.0 0.00 0.00 0.00 80 1013.6
20260508144550 67 0 0.0 1.0 0.00 0.00 0.00 79 1013.5
20260508143108 66 0 0.0 0.0 0.00 0.00 0.00 81 1013.3